Tracking 28790 objects as of 19-Apr-2024
HD Live streaming from Space Station
objects crossing your sky now

NAVSTAR 14 (USA 38)

Track NAVSTAR 14 (USA 38) now!
NAVSTAR 14 (USA 38) is classified as:


NORAD ID: 20061
Int'l Code: 1989-044A
Perigee: 21,208.6 km
Apogee: 21,342.9 km
Inclination: 53.8 °
Period: 762.5 minutes
Semi major axis: 27646 km
RCS: 2.8485 m2 (large)
Launch date: June 10, 1989
Source: United States (US)
Launch site: AIR FORCE EASTERN TEST RANGE (AFETR)
Your satellite tracking list
Your tracking list is empty




NASA's NSSDC Master Catalog

Two Line Element Set (TLE):
1 20061U 89044A   24108.80700993 -.00000029  00000-0  00000-0 0  9997
2 20061  53.8021 268.4201 0024280 192.5207 134.6736  1.88858821246859
Source of the keplerian elements: AFSPC